[Iaude] MPEC R240: 2023 RE11 [a=1.36,e=0.39,i=6.7,H=25.3]
    mpec at marsden.cfa.harvard.edu 
    mpec at marsden.cfa.harvard.edu
       
    Fri Sep 15 18:51:17 EDT 2023
    
    
  
M.P.E.C. 2023-R240                           Issued 2023 September 15, 22:49 UT
     The Minor Planet Electronic Circulars contain information on unusual
         minor planets, routine data on comets and natural satellites,
         and occasional editorial announcements.  They are published
    on behalf of Division F of the International Astronomical Union by the
          Minor Planet Center, Smithsonian Astrophysical Observatory,
                          Cambridge, MA 02138, U.S.A.
			  
             Prepared using the Tamkin Foundation Computer Network
                              MPC at CFA.HARVARD.EDU
            URL https://www.minorplanetcenter.net/    ISSN 1523-6714
                                   2023 RE11                                    
Observations:
     K23R11E*1C2023 09 06.28900523 20 44.905-05 28 37.99         21.79GVER240G96
     K23R11E 1C2023 09 06.29466923 20 44.812-05 28 53.69         22.11GVER240G96
     K23R11E 1C2023 09 06.30034823 20 44.711-05 29 08.99         22.07GVER240G96
     K23R11E 1C2023 09 06.30599523 20 44.660-05 29 24.40               VER240G96
     K23R11E  C2023 09 10.36412923 20 59.695-09 08 56.15         22.30GVER240F52
     K23R11E  C2023 09 10.38605323 20 59.249-09 10 19.89         21.50GVER240F52
     K23R11E  C2023 09 10.39698423 20 58.987-09 11 02.01         21.32GVER240F52
     K23R11E  C2023 09 14.43315423 21 08.018-14 19 17.57         21.46wXER240F51
     K23R11E  C2023 09 14.44037023 21 07.807-14 19 56.76         21.16wXER240F51
     K23R11E  C2023 09 14.44485423 21 07.677-14 20 21.34         21.07wXER240F51
     K23R11E  C2023 09 14.45207223 21 07.473-14 21 00.31         21.16wXER240F51
     K23R11E  C2023 09 14.45655923 21 07.347-14 21 25.00         21.11wXER240F51
     K23R11E  C2023 09 14.46377323 21 07.138-14 22 04.12         21.48wXER240F51
Observer details:
F51 Pan-STARRS 1, Haleakala.  Observers J. Bulger, T. Lowe, P. Minguez, A.
    Schultz, I. Smith.  Measurers K. Chambers, T. de Boer, J. Bulger, J.
    Fairlamb, H. Gao, M. Huber, C.-C. Lin, T. Lowe, E. Magnier, P. Minguez, Y.
    Ramanjooloo, A. Schultz, I. Smith, R. Wainscoat, R. Weryk.  1.8-m Ritchey-
    Chretien + CCD.
F52 Pan-STARRS 2, Haleakala.  Observers J. Bulger, K. Chambers, T. Dukes, T.
    Lowe, P. Minguez, A. Schultz, I. Smith.  Measurers S. Chastel, J.
    Fairlamb, M. Huber, Y. Ramanjooloo, R. Wainscoat, R. Weryk.  1.8-m
    Ritchey-Chretien + CCD.
G96 Mt. Lemmon Survey.  Observer A. R. Gibbs.  Measurers E. J. Christensen, D.
    Fay, J. B. Fazekas, D. C. Fuls, A. R. Gibbs, A. D. Grauer, H. Groeller, J.
    K. Hogan, R. A. Kowalski, S. M. Larson, G. J. Leonard, D. Rankin, R. L.
    Seaman, A. Serrano, F. C. Shelly, K. W. Wierzchos.  1.5-m reflector + 10K
    CCD.
Orbital elements:
2023 RE11                                                Earth MOID = 0.0431 AU
Epoch 2023 Sept. 13.0 TT = JDT 2460200.5                Veres                   
M 316.23657              (2000.0)            P               Q                  
n   0.62264601     Peri.  272.72943     +0.25154595     -0.96721191             
a   1.3582360      Node   162.58005     +0.92795530     +0.23074233             
e   0.3865777      Incl.    6.71593     +0.27499746     +0.10610887             
P   1.58           H   25.36          G   0.15           U   9                  
Residuals in seconds of arc
230906 G96  0.2+  0.0     230910 F52  0.2+  0.2+    230914 F51  0.0   0.2+
230906 G96  0.1+  0.2-    230910 F52  0.0   0.2+    230914 F51  0.0   0.1-
230906 G96  0.1-  0.1+    230914 F51  0.0   0.0     230914 F51  0.1-  0.1-
230906 G96  0.4+  0.2+    230914 F51  0.0   0.1+
230910 F52  0.2-  0.4-    230914 F51  0.0   0.1-
Ephemeris:
2023 RE11                a,e,i = 1.36, 0.39, 7                   q = 0.8332
Date    TT    R. A. (2000) Decl.     Delta      r    Elong.  Phase     V
2023 08 16    23 15 41.0 +02 19 31   0.3132  1.2960   151.2    22.1    24.5
...
2023 08 31    23 20 01.1 -01 41 40   0.2000  1.2051   166.7    11.1    23.0
...
2023 09 08    23 20 50.9 -06 51 43   0.1484  1.1557   175.7     3.7    21.9
...
2023 09 14    23 21 06.9 -13 39 57   0.1140  1.1186   170.0     9.0    21.5
2023 09 15    23 21 10.1 -15 11 13   0.1087  1.1125   168.0    10.8    21.5
2023 09 16    23 21 13.9 -16 51 11   0.1035  1.1063   165.8    12.9    21.4
...
2023 09 22    23 22 16.5 -30 59 29   0.07605 1.0697   148.7    29.2    21.2
...
2023 09 30    23 33 09.3 -66 44 52   0.05527 1.0221   110.2    66.9    21.5
...
2023 10 15    11 11 20.4 -49 48 39   0.09154 0.9402    49.2   126.5    25.4
M. P. C. Staff               (C) Copyright 2023 MPC           M.P.E.C. 2023-R240
    
    
More information about the Iaude
mailing list